contact:dominique.lefevre@mio.osupytheas.fr, maurice.libes@osupytheas.fr, didier.mallarino@osupytheas.fr
Project:EMSO http://www.emso-fr.org/EMSO-France
Depth: 2436.0 m
Title:EMSO Ligure Ouest : Data MII capteur OXYGEN
DateTime,Latitude,Longitude,Optode-Type,Optode_Serial,Oxygen,Saturation_Oxygen,Temperature
DateTime,Latitude,Longitude,Optode-Type,Optode_Serial,µmol.l-1,%,degC
2017-11-08T00:01:21,42.805,6.029,4330,1995,195.249,59.713,13.290
2017-11-08T00:04:21,42.805,6.029,4330,1995,195.596,59.817,13.289
2017-11-08T00:07:21,42.805,6.029,4330,1995,195.972,59.930,13.288
2017-11-08T00:10:21,42.805,6.029,4330,1995,196.174,59.993,13.288
2017-11-08T00:13:21,42.805,6.029,4330,1995,196.111,59.975,13.289
2017-11-08T00:16:21,42.805,6.029,4330,1995,196.261,60.019,13.288
2017-11-08T00:19:21,42.805,6.029,4330,1995,196.513,60.097,13.288
2017-11-08T00:22:21,42.805,6.029,4330,1995,196.727,60.162,13.288
2017-11-08T00:25:21,42.805,6.029,4330,1995,196.905,60.216,13.288
2017-11-08T00:28:21,42.805,6.029,4330,1995,196.993,60.243,13.288
2017-11-08T00:31:21,42.805,6.029,4330,1995,197.084,60.270,13.287
2017-11-08T00:34:21,42.805,6.029,4330,1995,197.155,60.291,13.286
2017-11-08T00:37:21,42.805,6.029,4330,1995,196.992,60.241,13.286
2017-11-08T00:40:21,42.805,6.029,4330,1995,196.915,60.217,13.286
2017-11-08T00:43:21,42.805,6.029,4330,1995,197.168,60.295,13.287
2017-11-08T00:46:21,42.805,6.029,4330,1995,197.261,60.324,13.287
2017-11-08T00:49:21,42.805,6.029,4330,1995,197.252,60.322,13.287
2017-11-08T00:52:21,42.805,6.029,4330,1995,197.248,60.320,13.287
2017-11-08T00:55:21,42.805,6.029,4330,1995,197.241,60.318,13.287
2017-11-08T00:58:21,42.805,6.029,4330,1995,197.177,60.299,13.288
2017-11-08T01:01:21,42.805,6.029,4330,1995,197.228,60.314,13.288
2017-11-08T01:04:21,42.805,6.029,4330,1995,197.336,60.347,13.287
2017-11-08T01:07:21,42.805,6.029,4330,1995,197.380,60.360,13.287
2017-11-08T01:10:21,42.805,6.029,4330,1995,197.359,60.353,13.287
2017-11-08T01:13:21,42.805,6.029,4330,1995,197.356,60.352,13.287
2017-11-08T01:16:21,42.805,6.029,4330,1995,197.483,60.391,13.286
2017-11-08T01:19:21,42.805,6.029,4330,1995,197.549,60.411,13.287
2017-11-08T01:22:21,42.805,6.029,4330,1995,197.520,60.403,13.287
2017-11-08T01:25:21,42.805,6.029,4330,1995,197.513,60.401,13.287
2017-11-08T01:28:21,42.805,6.029,4330,1995,197.463,60.385,13.287
2017-11-08T01:31:21,42.805,6.029,4330,1995,197.486,60.392,13.287
2017-11-08T01:34:21,42.805,6.029,4330,1995,197.539,60.408,13.287
2017-11-08T01:37:21,42.805,6.029,4330,1995,197.632,60.437,13.287
2017-11-08T01:40:21,42.805,6.029,4330,1995,197.548,60.410,13.286
2017-11-08T01:43:21,42.805,6.029,4330,1995,197.670,60.449,13.287
2017-11-08T01:46:21,42.805,6.029,4330,1995,197.676,60.450,13.286
2017-11-08T01:49:21,42.805,6.029,4330,1995,197.702,60.457,13.286
2017-11-08T01:52:21,42.805,6.029,4330,1995,197.647,60.441,13.287
2017-11-08T01:55:21,42.805,6.029,4330,1995,197.793,60.485,13.286
2017-11-08T01:58:21,42.805,6.029,4330,1995,197.777,60.481,13.286
2017-11-08T02:01:21,42.805,6.029,4330,1995,197.745,60.470,13.286
2017-11-08T02:04:21,42.805,6.029,4330,1995,197.781,60.481,13.286
2017-11-08T02:07:21,42.805,6.029,4330,1995,197.689,60.453,13.286
2017-11-08T02:10:21,42.805,6.029,4330,1995,197.715,60.461,13.286
2017-11-08T02:13:21,42.805,6.029,4330,1995,197.780,60.481,13.286
2017-11-08T02:16:21,42.805,6.029,4330,1995,197.685,60.452,13.286
2017-11-08T02:19:21,42.805,6.029,4330,1995,197.707,60.460,13.287
2017-11-08T02:22:21,42.805,6.029,4330,1995,197.747,60.472,13.286
2017-11-08T02:25:21,42.805,6.029,4330,1995,197.758,60.475,13.286
2017-11-08T02:28:21,42.805,6.029,4330,1995,197.771,60.478,13.286
2017-11-08T02:31:21,42.805,6.029,4330,1995,197.830,60.497,13.286
2017-11-08T02:34:21,42.805,6.029,4330,1995,197.770,60.478,13.286
2017-11-08T02:37:21,42.805,6.029,4330,1995,197.858,60.505,13.286
2017-11-08T02:40:21,42.805,6.029,4330,1995,197.876,60.511,13.286
2017-11-08T02:43:21,42.805,6.029,4330,1995,197.825,60.495,13.286
2017-11-08T02:46:21,42.805,6.029,4330,1995,197.867,60.508,13.286
2017-11-08T02:49:21,42.805,6.029,4330,1995,197.895,60.517,13.286
2017-11-08T02:52:21,42.805,6.029,4330,1995,197.877,60.511,13.286
2017-11-08T02:55:21,42.805,6.029,4330,1995,197.875,60.510,13.286
2017-11-08T02:58:21,42.805,6.029,4330,1995,197.846,60.501,13.286
2017-11-08T03:01:21,42.805,6.029,4330,1995,197.852,60.503,13.286
2017-11-08T03:04:21,42.805,6.029,4330,1995,197.883,60.513,13.286
2017-11-08T03:07:21,42.805,6.029,4330,1995,197.860,60.506,13.286
2017-11-08T03:10:21,42.805,6.029,4330,1995,197.925,60.526,13.286
2017-11-08T03:13:21,42.805,6.029,4330,1995,197.891,60.515,13.286
2017-11-08T03:16:21,42.805,6.029,4330,1995,197.938,60.529,13.286
2017-11-08T03:19:21,42.805,6.029,4330,1995,197.979,60.542,13.286
2017-11-08T03:22:21,42.805,6.029,4330,1995,197.961,60.536,13.286
2017-11-08T03:25:21,42.805,6.029,4330,1995,197.958,60.535,13.286
2017-11-08T03:28:21,42.805,6.029,4330,1995,197.941,60.531,13.286
2017-11-08T03:31:21,42.805,6.029,4330,1995,197.889,60.515,13.286
2017-11-08T03:34:21,42.805,6.029,4330,1995,197.950,60.534,13.286
2017-11-08T03:37:21,42.805,6.029,4330,1995,197.936,60.529,13.286
2017-11-08T03:40:21,42.805,6.029,4330,1995,198.017,60.554,13.286
2017-11-08T03:43:21,42.805,6.029,4330,1995,197.956,60.535,13.286
2017-11-08T03:46:21,42.805,6.029,4330,1995,197.960,60.537,13.287
2017-11-08T03:49:21,42.805,6.029,4330,1995,197.984,60.543,13.286
2017-11-08T03:52:21,42.805,6.029,4330,1995,197.997,60.548,13.286
2017-11-08T03:55:21,42.805,6.029,4330,1995,197.994,60.547,13.287
2017-11-08T03:58:21,42.805,6.029,4330,1995,198.020,60.554,13.286
2017-11-08T04:01:21,42.805,6.029,4330,1995,198.054,60.565,13.286
2017-11-08T04:04:21,42.805,6.029,4330,1995,198.044,60.562,13.286
2017-11-08T04:07:21,42.805,6.029,4330,1995,198.099,60.579,13.286
2017-11-08T04:10:21,42.805,6.029,4330,1995,197.981,60.543,13.286
2017-11-08T04:13:20,42.805,6.029,4330,1995,198.008,60.551,13.286
2017-11-08T04:16:20,42.805,6.029,4330,1995,197.916,60.523,13.287
2017-11-08T04:19:20,42.805,6.029,4330,1995,197.904,60.520,13.286
2017-11-08T04:22:20,42.805,6.029,4330,1995,197.915,60.523,13.286
2017-11-08T04:25:20,42.805,6.029,4330,1995,197.899,60.518,13.286
2017-11-08T04:28:20,42.805,6.029,4330,1995,197.985,60.544,13.286
2017-11-08T04:31:20,42.805,6.029,4330,1995,197.972,60.540,13.286
2017-11-08T04:34:20,42.805,6.029,4330,1995,197.924,60.526,13.286
2017-11-08T04:37:20,42.805,6.029,4330,1995,197.993,60.547,13.286
2017-11-08T04:40:20,42.805,6.029,4330,1995,198.020,60.555,13.286
2017-11-08T04:43:20,42.805,6.029,4330,1995,198.009,60.552,13.286
2017-11-08T04:46:20,42.805,6.029,4330,1995,198.094,60.577,13.286
2017-11-08T04:49:20,42.805,6.029,4330,1995,198.092,60.577,13.286
2017-11-08T04:52:20,42.805,6.029,4330,1995,198.013,60.553,13.286
2017-11-08T04:55:20,42.805,6.029,4330,1995,198.025,60.556,13.286
2017-11-08T04:58:20,42.805,6.029,4330,1995,198.084,60.575,13.286
2017-11-08T05:01:20,42.805,6.029,4330,1995,198.051,60.565,13.287
2017-11-08T05:04:20,42.805,6.029,4330,1995,198.117,60.584,13.286
2017-11-08T05:07:20,42.805,6.029,4330,1995,198.168,60.600,13.286
2017-11-08T05:10:20,42.805,6.029,4330,1995,198.137,60.591,13.286
2017-11-08T05:13:20,42.805,6.029,4330,1995,198.141,60.592,13.286
2017-11-08T05:16:20,42.805,6.029,4330,1995,198.217,60.615,13.286
2017-11-08T05:19:20,42.805,6.029,4330,1995,198.205,60.611,13.286
2017-11-08T05:22:20,42.805,6.029,4330,1995,198.169,60.600,13.286
2017-11-08T05:25:20,42.805,6.029,4330,1995,198.166,60.600,13.286
2017-11-08T05:28:20,42.805,6.029,4330,1995,198.189,60.607,13.286
2017-11-08T05:31:20,42.805,6.029,4330,1995,198.205,60.612,13.286
2017-11-08T05:34:20,42.805,6.029,4330,1995,198.246,60.624,13.286
2017-11-08T05:37:20,42.805,6.029,4330,1995,198.255,60.626,13.286
2017-11-08T05:40:20,42.805,6.029,4330,1995,198.241,60.623,13.286
2017-11-08T05:43:20,42.805,6.029,4330,1995,198.275,60.633,13.286
2017-11-08T05:46:20,42.805,6.029,4330,1995,198.294,60.639,13.286
2017-11-08T05:49:20,42.805,6.029,4330,1995,198.307,60.643,13.286
2017-11-08T05:52:20,42.805,6.029,4330,1995,198.323,60.647,13.286
2017-11-08T05:55:20,42.805,6.029,4330,1995,198.287,60.636,13.286
2017-11-08T05:58:20,42.805,6.029,4330,1995,198.273,60.632,13.286
2017-11-08T06:01:20,42.805,6.029,4330,1995,198.311,60.644,13.286
2017-11-08T06:04:20,42.805,6.029,4330,1995,198.330,60.650,13.286
2017-11-08T06:07:20,42.805,6.029,4330,1995,198.325,60.648,13.286
2017-11-08T06:10:20,42.805,6.029,4330,1995,198.305,60.642,13.286
2017-11-08T06:13:20,42.805,6.029,4330,1995,198.274,60.633,13.286
2017-11-08T06:16:20,42.805,6.029,4330,1995,198.302,60.641,13.286
2017-11-08T06:19:20,42.805,6.029,4330,1995,198.315,60.645,13.286
2017-11-08T06:22:20,42.805,6.029,4330,1995,198.241,60.623,13.286
2017-11-08T06:25:20,42.805,6.029,4330,1995,198.210,60.613,13.286
2017-11-08T06:28:20,42.805,6.029,4330,1995,198.219,60.616,13.286
2017-11-08T06:31:20,42.805,6.029,4330,1995,198.236,60.621,13.286
2017-11-08T06:34:20,42.805,6.029,4330,1995,198.260,60.628,13.286
2017-11-08T06:37:20,42.805,6.029,4330,1995,198.219,60.616,13.286
2017-11-08T06:40:20,42.805,6.029,4330,1995,198.210,60.613,13.286
2017-11-08T06:43:20,42.805,6.029,4330,1995,198.213,60.614,13.286
2017-11-08T06:46:20,42.805,6.029,4330,1995,198.225,60.618,13.286
2017-11-08T06:49:20,42.805,6.029,4330,1995,198.220,60.616,13.286
2017-11-08T06:52:20,42.805,6.029,4330,1995,198.171,60.601,13.286
2017-11-08T06:55:20,42.805,6.029,4330,1995,198.125,60.587,13.286
2017-11-08T06:58:20,42.805,6.029,4330,1995,198.125,60.587,13.286
2017-11-08T07:01:20,42.805,6.029,4330,1995,198.198,60.610,13.286
2017-11-08T07:04:20,42.805,6.029,4330,1995,198.265,60.630,13.286
2017-11-08T07:07:20,42.805,6.029,4330,1995,198.294,60.639,13.286
2017-11-08T07:10:20,42.805,6.029,4330,1995,198.366,60.661,13.286
2017-11-08T07:13:20,42.805,6.029,4330,1995,198.418,60.677,13.286
2017-11-08T07:16:20,42.805,6.029,4330,1995,198.386,60.667,13.286
2017-11-08T07:19:20,42.805,6.029,4330,1995,198.418,60.677,13.286
2017-11-08T07:22:20,42.805,6.029,4330,1995,198.406,60.673,13.286
2017-11-08T07:25:20,42.805,6.029,4330,1995,198.372,60.663,13.286
2017-11-08T07:28:20,42.805,6.029,4330,1995,198.406,60.673,13.286
2017-11-08T07:31:20,42.805,6.029,4330,1995,198.371,60.662,13.286
2017-11-08T07:34:20,42.805,6.029,4330,1995,198.406,60.673,13.286
2017-11-08T07:37:20,42.805,6.029,4330,1995,198.465,60.691,13.286
2017-11-08T07:40:20,42.805,6.029,4330,1995,198.461,60.690,13.286
2017-11-08T07:43:20,42.805,6.029,4330,1995,198.555,60.718,13.286
2017-11-08T07:46:20,42.805,6.029,4330,1995,198.508,60.704,13.286
2017-11-08T07:49:20,42.805,6.029,4330,1995,198.506,60.703,13.286
2017-11-08T07:52:20,42.805,6.029,4330,1995,198.473,60.693,13.286
2017-11-08T07:55:20,42.805,6.029,4330,1995,198.494,60.700,13.286
2017-11-08T07:58:20,42.805,6.029,4330,1995,198.394,60.669,13.286
2017-11-08T08:01:20,42.805,6.029,4330,1995,198.461,60.690,13.286
2017-11-08T08:04:20,42.805,6.029,4330,1995,198.440,60.683,13.286
2017-11-08T08:07:20,42.805,6.029,4330,1995,198.341,60.653,13.286
2017-11-08T08:10:20,42.805,6.029,4330,1995,198.384,60.666,13.286
2017-11-08T08:13:20,42.805,6.029,4330,1995,198.426,60.679,13.286
2017-11-08T08:16:20,42.805,6.029,4330,1995,198.367,60.661,13.286
2017-11-08T08:19:20,42.805,6.029,4330,1995,198.287,60.637,13.286
2017-11-08T08:22:20,42.805,6.029,4330,1995,198.364,60.660,13.286
2017-11-08T08:25:20,42.805,6.029,4330,1995,198.342,60.654,13.286
2017-11-08T08:28:20,42.805,6.029,4330,1995,198.318,60.646,13.286
2017-11-08T08:31:20,42.805,6.029,4330,1995,198.334,60.651,13.286
2017-11-08T08:34:20,42.805,6.029,4330,1995,198.268,60.631,13.287
2017-11-08T08:37:20,42.805,6.029,4330,1995,198.292,60.638,13.287
2017-11-08T08:40:20,42.805,6.029,4330,1995,198.253,60.626,13.286
2017-11-08T08:43:20,42.805,6.029,4330,1995,198.222,60.617,13.287
2017-11-08T08:46:20,42.805,6.029,4330,1995,198.327,60.649,13.286
2017-11-08T08:49:20,42.805,6.029,4330,1995,198.254,60.627,13.286
2017-11-08T08:52:20,42.805,6.029,4330,1995,198.264,60.630,13.286
2017-11-08T08:55:20,42.805,6.029,4330,1995,198.288,60.637,13.286
2017-11-08T08:58:20,42.805,6.029,4330,1995,198.234,60.621,13.287
2017-11-08T09:01:20,42.805,6.029,4330,1995,198.211,60.614,13.287
2017-11-08T09:04:20,42.805,6.029,4330,1995,198.221,60.617,13.287
2017-11-08T09:07:20,42.805,6.029,4330,1995,198.228,60.619,13.287
2017-11-08T09:10:20,42.805,6.029,4330,1995,198.175,60.603,13.287
2017-11-08T09:13:20,42.805,6.029,4330,1995,198.253,60.627,13.287
2017-11-08T09:16:20,42.805,6.029,4330,1995,198.147,60.594,13.287
2017-11-08T09:19:20,42.805,6.029,4330,1995,198.214,60.615,13.287
2017-11-08T09:22:20,42.805,6.029,4330,1995,198.277,60.634,13.286
2017-11-08T09:25:20,42.805,6.029,4330,1995,198.107,60.582,13.286
2017-11-08T09:28:20,42.805,6.029,4330,1995,198.083,60.575,13.286
2017-11-08T09:31:20,42.805,6.029,4330,1995,198.161,60.599,13.287
2017-11-08T09:34:20,42.805,6.029,4330,1995,198.096,60.579,13.287
2017-11-08T09:37:20,42.805,6.029,4330,1995,198.153,60.596,13.286
2017-11-08T09:40:20,42.805,6.029,4330,1995,198.109,60.583,13.287
2017-11-08T09:43:20,42.805,6.029,4330,1995,198.105,60.581,13.287
2017-11-08T09:46:20,42.805,6.029,4330,1995,198.123,60.587,13.287
2017-11-08T09:49:20,42.805,6.029,4330,1995,198.070,60.571,13.287
2017-11-08T09:52:20,42.805,6.029,4330,1995,198.083,60.575,13.286
2017-11-08T09:55:20,42.805,6.029,4330,1995,198.058,60.567,13.287
2017-11-08T09:58:20,42.805,6.029,4330,1995,197.988,60.545,13.287
2017-11-08T10:01:20,42.805,6.029,4330,1995,197.972,60.541,13.287
2017-11-08T10:04:20,42.805,6.029,4330,1995,198.056,60.566,13.286
2017-11-08T10:07:20,42.805,6.029,4330,1995,197.956,60.536,13.286
2017-11-08T10:10:20,42.805,6.029,4330,1995,197.954,60.535,13.286
2017-11-08T10:13:20,42.805,6.029,4330,1995,197.933,60.529,13.287
2017-11-08T10:16:20,42.805,6.029,4330,1995,197.973,60.541,13.287
2017-11-08T10:19:20,42.805,6.029,4330,1995,198.016,60.554,13.287
2017-11-08T10:22:20,42.805,6.029,4330,1995,197.956,60.536,13.286
2017-11-08T10:25:20,42.805,6.029,4330,1995,197.863,60.507,13.287
2017-11-08T10:28:20,42.805,6.029,4330,1995,197.894,60.517,13.287
2017-11-08T10:31:20,42.805,6.029,4330,1995,197.800,60.488,13.287
2017-11-08T10:34:20,42.805,6.029,4330,1995,197.690,60.455,13.287
2017-11-08T10:37:20,42.805,6.029,4330,1995,197.769,60.479,13.287
2017-11-08T10:40:20,42.805,6.029,4330,1995,197.755,60.474,13.287
2017-11-08T10:43:20,42.805,6.029,4330,1995,197.827,60.496,13.287
2017-11-08T10:46:20,42.805,6.029,4330,1995,197.868,60.509,13.287
2017-11-08T10:49:20,42.805,6.029,4330,1995,197.865,60.508,13.286
2017-11-08T10:52:20,42.805,6.029,4330,1995,197.932,60.529,13.287
2017-11-08T10:55:20,42.805,6.029,4330,1995,197.895,60.517,13.287
2017-11-08T10:58:20,42.805,6.029,4330,1995,197.849,60.503,13.286
2017-11-08T11:01:20,42.805,6.029,4330,1995,197.880,60.512,13.286
2017-11-08T11:04:20,42.805,6.029,4330,1995,197.894,60.517,13.287
2017-11-08T11:07:20,42.805,6.029,4330,1995,197.743,60.471,13.287
2017-11-08T11:10:20,42.805,6.029,4330,1995,197.700,60.458,13.287
2017-11-08T11:13:20,42.805,6.029,4330,1995,197.659,60.445,13.287
2017-11-08T11:16:20,42.805,6.029,4330,1995,197.582,60.422,13.287
2017-11-08T11:19:20,42.805,6.029,4330,1995,197.652,60.443,13.287
2017-11-08T11:22:20,42.805,6.029,4330,1995,197.687,60.454,13.287
2017-11-08T11:25:20,42.805,6.029,4330,1995,197.644,60.441,13.287
2017-11-08T11:28:20,42.805,6.029,4330,1995,197.580,60.421,13.287
2017-11-08T11:31:20,42.805,6.029,4330,1995,197.586,60.423,13.287
2017-11-08T11:34:20,42.805,6.029,4330,1995,197.570,60.418,13.287
2017-11-08T11:37:20,42.805,6.029,4330,1995,197.577,60.420,13.287
2017-11-08T11:40:20,42.805,6.029,4330,1995,197.493,60.394,13.287
2017-11-08T11:43:20,42.805,6.029,4330,1995,197.432,60.376,13.287
2017-11-08T11:46:20,42.805,6.029,4330,1995,197.380,60.360,13.287
2017-11-08T11:49:20,42.805,6.029,4330,1995,197.329,60.344,13.287
2017-11-08T11:52:20,42.805,6.029,4330,1995,197.388,60.362,13.287
2017-11-08T11:55:20,42.805,6.029,4330,1995,197.522,60.404,13.287
2017-11-08T11:58:20,42.805,6.029,4330,1995,197.488,60.394,13.287
2017-11-08T12:01:20,42.805,6.029,4330,1995,197.392,60.365,13.288
2017-11-08T12:04:20,42.805,6.029,4330,1995,197.195,60.304,13.287
2017-11-08T12:07:20,42.805,6.029,4330,1995,197.218,60.312,13.288
2017-11-08T12:10:20,42.805,6.029,4330,1995,197.180,60.299,13.287
2017-11-08T12:13:20,42.805,6.029,4330,1995,197.152,60.291,13.287
2017-11-08T12:16:20,42.805,6.029,4330,1995,197.103,60.277,13.288
2017-11-08T12:19:20,42.805,6.029,4330,1995,197.159,60.293,13.287
2017-11-08T12:22:20,42.805,6.029,4330,1995,197.037,60.256,13.287
2017-11-08T12:25:20,42.805,6.029,4330,1995,196.986,60.240,13.288
2017-11-08T12:28:20,42.805,6.029,4330,1995,197.024,60.251,13.287
2017-11-08T12:31:20,42.805,6.029,4330,1995,196.998,60.244,13.287
2017-11-08T12:34:20,42.805,6.029,4330,1995,197.015,60.249,13.287
2017-11-08T12:37:20,42.805,6.029,4330,1995,196.985,60.240,13.288
2017-11-08T12:40:20,42.805,6.029,4330,1995,196.976,60.237,13.287
2017-11-08T12:43:20,42.805,6.029,4330,1995,197.005,60.245,13.287
2017-11-08T12:46:20,42.805,6.029,4330,1995,197.014,60.249,13.287
2017-11-08T12:49:20,42.805,6.029,4330,1995,196.808,60.185,13.287
2017-11-08T12:52:20,42.805,6.029,4330,1995,196.929,60.222,13.287
2017-11-08T12:55:20,42.805,6.029,4330,1995,196.848,60.197,13.287
2017-11-08T12:58:20,42.805,6.029,4330,1995,196.863,60.203,13.287
2017-11-08T13:01:20,42.805,6.029,4330,1995,196.927,60.222,13.287
2017-11-08T13:04:20,42.805,6.029,4330,1995,196.948,60.229,13.287
2017-11-08T13:07:20,42.805,6.029,4330,1995,196.928,60.222,13.287
2017-11-08T13:10:20,42.805,6.029,4330,1995,196.755,60.169,13.287
2017-11-08T13:13:20,42.805,6.029,4330,1995,196.744,60.166,13.287
2017-11-08T13:16:20,42.805,6.029,4330,1995,196.782,60.177,13.287
2017-11-08T13:19:20,42.805,6.029,4330,1995,196.920,60.219,13.287
2017-11-08T13:22:20,42.805,6.029,4330,1995,196.862,60.202,13.287
2017-11-08T13:25:20,42.805,6.029,4330,1995,196.896,60.213,13.287
2017-11-08T13:28:20,42.805,6.029,4330,1995,196.898,60.214,13.288
2017-11-08T13:31:20,42.805,6.029,4330,1995,196.925,60.221,13.287
2017-11-08T13:34:20,42.805,6.029,4330,1995,196.862,60.202,13.287
2017-11-08T13:37:20,42.805,6.029,4330,1995,196.777,60.176,13.287
2017-11-08T13:40:20,42.805,6.029,4330,1995,196.813,60.186,13.287
2017-11-08T13:43:20,42.805,6.029,4330,1995,196.761,60.172,13.288
2017-11-08T13:46:20,42.805,6.029,4330,1995,196.694,60.151,13.287
2017-11-08T13:49:20,42.805,6.029,4330,1995,196.770,60.175,13.288
2017-11-08T13:52:20,42.805,6.029,4330,1995,196.821,60.190,13.288
2017-11-08T13:55:20,42.805,6.029,4330,1995,196.678,60.147,13.288
2017-11-08T13:58:20,42.805,6.029,4330,1995,196.598,60.122,13.288
2017-11-08T14:01:20,42.805,6.029,4330,1995,196.664,60.142,13.288
2017-11-08T14:04:20,42.805,6.029,4330,1995,196.616,60.127,13.288
2017-11-08T14:07:20,42.805,6.029,4330,1995,196.505,60.093,13.287
2017-11-08T14:10:20,42.805,6.029,4330,1995,196.459,60.079,13.288
2017-11-08T14:13:20,42.805,6.029,4330,1995,196.425,60.069,13.288
2017-11-08T14:16:20,42.805,6.029,4330,1995,196.520,60.097,13.287
2017-11-08T14:19:20,42.805,6.029,4330,1995,196.577,60.115,13.287
2017-11-08T14:22:20,42.805,6.029,4330,1995,196.692,60.151,13.288
2017-11-08T14:25:20,42.805,6.029,4330,1995,196.716,60.158,13.288
2017-11-08T14:28:20,42.805,6.029,4330,1995,196.664,60.142,13.288
2017-11-08T14:31:20,42.805,6.029,4330,1995,196.763,60.171,13.287
2017-11-08T14:34:20,42.805,6.029,4330,1995,196.688,60.148,13.287
2017-11-08T14:37:20,42.805,6.029,4330,1995,196.645,60.136,13.288
2017-11-08T14:40:20,42.805,6.029,4330,1995,196.672,60.144,13.287
2017-11-08T14:43:20,42.805,6.029,4330,1995,196.756,60.169,13.287
2017-11-08T14:46:20,42.805,6.029,4330,1995,196.728,60.162,13.288
2017-11-08T14:49:20,42.805,6.029,4330,1995,196.714,60.157,13.288
2017-11-08T14:52:20,42.805,6.029,4330,1995,196.744,60.167,13.288
2017-11-08T14:55:20,42.805,6.029,4330,1995,196.693,60.151,13.288
2017-11-08T14:58:20,42.805,6.029,4330,1995,196.680,60.148,13.288
2017-11-08T15:01:20,42.805,6.029,4330,1995,196.622,60.129,13.287
2017-11-08T15:04:20,42.805,6.029,4330,1995,196.803,60.184,13.287
2017-11-08T15:07:20,42.805,6.029,4330,1995,196.790,60.180,13.287
2017-11-08T15:10:20,42.805,6.029,4330,1995,196.791,60.180,13.287
2017-11-08T15:13:20,42.805,6.029,4330,1995,196.787,60.179,13.287
2017-11-08T15:16:20,42.805,6.029,4330,1995,196.940,60.226,13.288
2017-11-08T15:19:20,42.805,6.029,4330,1995,196.876,60.207,13.288
2017-11-08T15:22:20,42.805,6.029,4330,1995,196.836,60.195,13.288
2017-11-08T15:25:20,42.805,6.029,4330,1995,196.903,60.215,13.288
2017-11-08T15:28:20,42.805,6.029,4330,1995,196.948,60.229,13.288
2017-11-08T15:31:20,42.805,6.029,4330,1995,196.934,60.224,13.287
2017-11-08T15:34:20,42.805,6.029,4330,1995,196.973,60.235,13.287
2017-11-08T15:37:20,42.805,6.029,4330,1995,196.909,60.216,13.287
2017-11-08T15:40:20,42.805,6.029,4330,1995,196.899,60.213,13.287
2017-11-08T15:43:20,42.805,6.029,4330,1995,196.724,60.159,13.287
2017-11-08T15:46:20,42.805,6.029,4330,1995,196.743,60.165,13.287
2017-11-08T15:49:20,42.805,6.029,4330,1995,196.713,60.155,13.286
2017-11-08T15:52:20,42.805,6.029,4330,1995,196.720,60.158,13.286
2017-11-08T15:55:20,42.805,6.029,4330,1995,196.487,60.086,13.286
2017-11-08T15:58:20,42.805,6.029,4330,1995,196.333,60.039,13.286
2017-11-08T16:01:20,42.805,6.029,4330,1995,196.365,60.049,13.286
2017-11-08T16:04:20,42.805,6.029,4330,1995,196.511,60.094,13.286
2017-11-08T16:07:20,42.805,6.029,4330,1995,196.646,60.135,13.286
2017-11-08T16:10:20,42.805,6.029,4330,1995,196.605,60.122,13.286
2017-11-08T16:13:20,42.805,6.029,4330,1995,196.713,60.155,13.286
2017-11-08T16:16:20,42.805,6.029,4330,1995,196.612,60.124,13.286
2017-11-08T16:19:20,42.805,6.029,4330,1995,196.411,60.063,13.286
2017-11-08T16:22:20,42.805,6.029,4330,1995,196.361,60.047,13.286
2017-11-08T16:25:20,42.805,6.029,4330,1995,196.351,60.044,13.286
2017-11-08T16:28:20,42.805,6.029,4330,1995,196.392,60.057,13.286
2017-11-08T16:31:20,42.805,6.029,4330,1995,196.484,60.085,13.286
2017-11-08T16:34:20,42.805,6.029,4330,1995,196.571,60.111,13.286
2017-11-08T16:37:20,42.805,6.029,4330,1995,196.555,60.106,13.286
2017-11-08T16:40:20,42.805,6.029,4330,1995,196.672,60.143,13.286
2017-11-08T16:43:20,42.805,6.029,4330,1995,196.637,60.132,13.286
2017-11-08T16:46:20,42.805,6.029,4330,1995,196.659,60.139,13.286
2017-11-08T16:49:20,42.805,6.029,4330,1995,196.772,60.173,13.286
2017-11-08T16:52:20,42.805,6.029,4330,1995,196.633,60.130,13.286
2017-11-08T16:55:20,42.805,6.029,4330,1995,196.716,60.156,13.286
2017-11-08T16:58:20,42.805,6.029,4330,1995,196.967,60.233,13.286
2017-11-08T17:01:20,42.805,6.029,4330,1995,197.180,60.297,13.286
2017-11-08T17:04:20,42.805,6.029,4330,1995,197.188,60.300,13.286
2017-11-08T17:07:20,42.805,6.029,4330,1995,197.013,60.247,13.286
2017-11-08T17:10:20,42.805,6.029,4330,1995,196.849,60.196,13.286
2017-11-08T17:13:20,42.805,6.029,4330,1995,196.824,60.189,13.286
2017-11-08T17:16:20,42.805,6.029,4330,1995,196.876,60.205,13.286
2017-11-08T17:19:20,42.805,6.029,4330,1995,196.808,60.184,13.286
2017-11-08T17:22:20,42.805,6.029,4330,1995,196.805,60.183,13.286
2017-11-08T17:25:20,42.805,6.029,4330,1995,196.845,60.195,13.286
2017-11-08T17:28:20,42.805,6.029,4330,1995,196.844,60.195,13.286
2017-11-08T17:31:20,42.805,6.029,4330,1995,196.903,60.213,13.286
2017-11-08T17:34:20,42.805,6.029,4330,1995,196.964,60.231,13.286
2017-11-08T17:37:20,42.805,6.029,4330,1995,197.018,60.248,13.286
2017-11-08T17:40:20,42.805,6.029,4330,1995,197.017,60.248,13.286
2017-11-08T17:43:20,42.805,6.029,4330,1995,197.059,60.261,13.286
2017-11-08T17:46:20,42.805,6.029,4330,1995,197.018,60.248,13.286
2017-11-08T17:49:20,42.805,6.029,4330,1995,196.976,60.235,13.286
2017-11-08T17:52:20,42.805,6.029,4330,1995,197.039,60.254,13.286
2017-11-08T17:55:20,42.805,6.029,4330,1995,197.068,60.263,13.286
2017-11-08T17:58:20,42.805,6.029,4330,1995,197.079,60.267,13.286
2017-11-08T18:01:20,42.805,6.029,4330,1995,197.015,60.247,13.286
2017-11-08T18:04:20,42.805,6.029,4330,1995,197.061,60.261,13.286
2017-11-08T18:07:20,42.805,6.029,4330,1995,197.124,60.280,13.286